This is the latest recevied weather packets stored in our database for station/object LA5PPA-1. If no packets are shown the sender has not sent any weather packets the latest 1 day(s).
| Time | Temp. | Humidity | Pressure | Rain* | Wind** | Luminosity | Snow |
|---|---|---|---|---|---|---|---|
| 1778066214 | 3.33° C | 42% | 1016.8 hPa | 0 mm | - | - | - |
| 1778065914 | 2.78° C | 43% | 1016.8 hPa | 0 mm | - | - | - |
| 1778065614 | 3.33° C | 41% | 1016.8 hPa | 0 mm | - | - | - |
| 1778065314 | 3.89° C | 39% | 1016.8 hPa | 0 mm | - | - | - |
| 1778065014 | 3.89° C | 40% | 1016.8 hPa | 0 mm | - | - | - |
| 1778064714 | 3.89° C | 39% | 1016.8 hPa | 0 mm | - | - | - |
| 1778064414 | 4.44° C | 38% | 1016.6 hPa | 0 mm | - | - | - |
| 1778064114 | 4.44° C | 39% | 1016.7 hPa | 0 mm | - | - | - |
| 1778063814 | 4.44° C | 41% | 1016.8 hPa | 0 mm | - | - | - |
| 1778063514 | 3.89° C | 41% | 1016.8 hPa | 0 mm | - | - | - |
| 1778063214 | 3.89° C | 40% | 1016.8 hPa | 0 mm | - | - | - |
| 1778062914 | 3.89° C | 41% | 1016.7 hPa | 0 mm | - | - | - |
| 1778062614 | 3.89° C | 44% | 1016.8 hPa | 0 mm | - | - | - |
| 1778062314 | 3.89° C | 39% | 1016.8 hPa | 0 mm | - | - | - |
| 1778062014 | 3.89° C | 42% | 1016.8 hPa | 0 mm | - | - | - |
| 1778061714 | 3.89° C | 43% | 1016.9 hPa | 0 mm | - | - | - |
| 1778061414 | 3.33° C | 45% | 1016.9 hPa | 0 mm | - | - | - |
| 1778061114 | 2.78° C | 44% | 1016.9 hPa | 0 mm | - | - | - |
| 1778060814 | 2.78° C | 43% | 1016.8 hPa | 0 mm | - | - | - |
| 1778060514 | 2.78° C | 45% | 1016.9 hPa | 0 mm | - | - | - |
| 1778060214 | 2.78° C | 46% | 1016.8 hPa | 0 mm | - | - | - |
| 1778059914 | 2.78° C | 47% | 1016.9 hPa | 0 mm | - | - | - |
| 1778059614 | 2.22° C | 48% | 1016.9 hPa | 0 mm | - | - | - |
| 1778059314 | 1.67° C | 45% | 1017.1 hPa | 0 mm | - | - | - |
| 1778059014 | 2.22° C | 49% | 1016.9 hPa | 0 mm | - | - | - |
* Rain latest hour (hover to see other rain measurements)
** Current wind speed in m/s (hover to see current wind gust speed)